Location: Bear Valley Meadows
(40.9851°N, 123.0761°W)
Time: 03:39:25
(UTC+00:00)

Hubble Space Telescope - Visible Passes

Search period start: 14 July 2024 00:00
Search period end: 24 July 2024 00:00
Orbit: 510 x 513 km, 28.5° (Epoch: 13 July)

Date Brightness Start Highest point End Pass type
(mag) Time Alt. Az. Time Alt. Az. Time Alt. Az.
14 Jul 2.8 05:21:07 10° SSW 05:22:04 12° SSW 05:22:04 12° SSW visible
15 Jul 2.6 05:01:41 10° SSW 05:03:40 13° S 05:03:51 13° S visible
16 Jul 2.7 04:42:14 10° SSW 04:44:13 13° S 04:45:32 12° SSE visible
17 Jul 2.8 04:22:49 10° SSW 04:24:46 13° S 04:26:43 10° SSE visible
